Powrót do katalogu

STARLINK-37298

AktywnyŁącznośćSSO
NORAD 68670·PAYLOAD·🇺🇸 United States

Wystrzelony Apr 11, 2026 z Vandenberg Space Force Base

Loading…

Następne Przeloty (najbliższe 24 godziny)

TLE

ŚwieżeSource: CelesTrak SupGP

Epoka: Sep 14, 2026, 23:05 UTC

1 68670C 26077J   26257.96229167  .00068869  00000+0  21365-2 0  2575
2 68670  97.2846 127.9039 0002001  91.7555 216.7653 15.33424198    12

Śledź STARLINK-37298 w czasie rzeczywistym z AllMySat

Download on the App Store